[[{"header":{"parameterUnit":"m.s-1","parameterCategory":1,"la1":30.2991,"la2":30.254,"lo1":-89.0895,"lo2":-89.0444,"dy":0.0017,"dx":0.0017,"nx":28,"ny":28,"refTime":"2025-03-28T21:00:00:Z","depth":0,"parameterNumber":2,"parameterNumberName":"U-component_of_WINDS"},"data":[0,0,0,0,0,0,0,0,0,0,0,0,0,0,0,0,0,0,0,0,0,0,0,0,0,0,0,0,0,0,0,0,0,0,0,0,0,0,0,0,0,0,0,0,0,0,0,0,0,0,0,0,0,0,0,0,0,0,-1.4351,-1.4352,0,-1.4433,-1.4434,-1.4435,-1.4456,-1.4455,-1.4454,-1.4454,-1.4539,-1.4542,-1.4544,0,0,0,0,0,0,0,0,0,0,0,0,0,-1.4212,-1.4214,-1.4351,-1.4352,-1.4353,-1.4433,-1.4434,-1.4435,-1.4456,-1.4455,-1.4454,-1.4454,-1.4538,-1.4541,-1.4545,0,0,0,0,0,0,0,0,0,0,0,0,0,-1.4281,-1.4215,-1.4351,-1.4373,-1.4375,-1.4433,-1.4434,-1.4435,-1.4456,-1.4455,-1.4454,-1.4453,-1.4537,-1.4541,-1.4545,-1.4586,0,0,-1.4558,-1.4559,0,0,0,0,0,0,0,0,-1.4277,-1.4286,-1.4368,-1.4371,-1.4374,-1.4433,-1.4416,-1.4486,-1.4456,-1.4425,-1.4454,-1.4453,-1.4504,-1.4511,-1.4528,-1.459,-1.4594,-1.4558,-1.456,-1.4562,-1.4563,0,0,0,0,0,0,0,-1.4272,-1.4282,-1.4383,-1.437,-1.4373,-1.4379,-1.4387,-1.4429,-1.4468,-1.4428,-1.443,-1.4439,-1.4506,-1.4524,-1.453,-1.4595,-1.4558,-1.4562,-1.4564,-1.4566,-1.4694,-1.4695,0,0,0,0,0,0,-1.4263,-1.4278,-1.4381,-1.4386,-1.4323,-1.4382,-1.4392,-1.4415,-1.4468,-1.4475,-1.444,-1.444,-1.4518,-1.4526,-1.4534,-1.4584,-1.4562,-1.4566,-1.4568,-1.4693,-1.4694,-1.4695,0,0,0,0,0,0,-1.426,-1.4272,-1.4377,-1.4333,-1.4346,-1.4385,-1.4411,-1.4417,-1.4436,-1.4477,-1.4484,-1.4451,-1.4517,-1.4528,-1.4573,-1.4588,-1.4568,-1.4572,-1.4692,-1.4693,-1.4695,-1.4687,0,0,0,0,0,0,-1.4256,-1.4271,-1.4287,-1.4333,-1.4349,-1.4415,-1.4412,-1.4419,-1.4443,-1.4443,-1.4489,-1.4496,-1.4518,-1.4566,-1.4577,-1.4593,-1.4575,-1.4691,-1.4693,-1.4694,-1.4686,-1.4688,-1.4689,0,0,0,0,0,-1.4251,-1.4282,-1.4288,-1.43,-1.4369,-1.4416,-1.4425,-1.4448,-1.4444,-1.446,-1.4486,-1.4495,-1.4584,-1.4571,-1.4583,-1.46,-1.469,-1.4692,-1.4694,-1.4685,-1.4687,-1.4689,0,0,0,0,0,0,-1.4238,-1.4288,-1.4295,-1.4342,-1.4374,-1.4419,-1.4441,-1.445,-1.4485,-1.4484,-1.4512,-1.4523,-1.4565,-1.4588,-1.4571,-1.4642,-1.4637,-1.4642,-1.4626,-1.4629,-1.463,-1.4624,-1.4578,0,0,0,0,0,-1.424,-1.4273,-1.4316,-1.4353,-1.4369,-1.4402,-1.4423,-1.4438,-1.4473,-1.4487,-1.4517,-1.455,-1.4586,-1.4609,-1.4644,-1.4689,-1.4699,-1.4707,-1.4709,-1.471,-1.4713,-1.4738,-1.4742,-1.4702,-1.4702,-1.4702,0,0,-1.4245,-1.4277,-1.4297,-1.4351,-1.4378,-1.4411,-1.4413,-1.4449,-1.4474,-1.4492,-1.4536,-1.4559,-1.4599,-1.4643,-1.4665,-1.4663,-1.4727,-1.4713,-1.4713,-1.4716,-1.4741,-1.4744,-1.4748,-1.4703,-1.4703,-1.4703,0,0,-1.4272,-1.43,-1.4333,-1.436,-1.44,-1.4422,-1.443,-1.4473,-1.4489,-1.4533,-1.4547,-1.4578,-1.4639,-1.4666,-1.4688,-1.4724,-1.4733,-1.4735,-1.4743,-1.4767,-1.477,-1.4773,-1.4785,-1.4789,-1.4738,-1.4738,-1.4738,0,-1.4274,-1.4325,-1.4349,-1.4384,-1.4407,-1.4425,-1.4458,-1.4483,-1.4533,-1.4548,-1.4546,-1.4622,-1.465,-1.4701,-1.471,-1.4727,-1.4737,-1.4729,-1.4768,-1.4771,-1.4774,-1.4786,-1.479,-1.4738,-1.4738,-1.4738,-1.4738,0,-1.4324,-1.4359,-1.4381,-1.4428,-1.4454,-1.4488,-1.4517,-1.454,-1.4553,-1.4575,-1.462,-1.4654,-1.4695,-1.4709,-1.4722,-1.4762,-1.4759,-1.4762,-1.4757,-1.4777,-1.4788,-1.4793,-1.4738,-1.4738,-1.4738,-1.4738,0,0,-1.4344,-1.4404,-1.4411,-1.4432,-1.4478,-1.4506,-1.454,-1.4581,-1.4599,-1.4634,-1.4663,-1.4714,-1.4716,-1.4741,-1.4757,-1.4778,-1.4803,-1.4778,-1.478,-1.4781,-1.4848,-1.4845,-1.4849,-1.481,-1.4811,-1.4812,-1.4844,0,-1.4376,-1.4438,-1.446,-1.4511,-1.4543,-1.456,-1.459,-1.4621,-1.4643,-1.4673,-1.4697,-1.4732,-1.4733,-1.4748,-1.477,-1.4796,-1.4817,-1.4794,-1.4837,-1.4838,-1.4825,-1.4856,-1.4853,-1.4882,-1.4849,-1.485,-1.485,0,-1.4421,-1.4454,-1.4508,-1.4548,-1.4563,-1.4589,-1.4628,-1.4657,-1.4692,-1.4706,-1.4733,-1.4748,-1.4785,-1.4778,-1.4829,-1.4813,-1.4832,-1.4847,-1.4849,-1.4853,-1.4845,-1.4859,-1.4892,-1.4895,-1.4858,-1.4857,-1.4856,0,-1.4429,-1.4487,-1.4527,-1.4544,-1.4593,-1.4611,-1.4632,-1.4667,-1.4689,-1.4723,-1.4738,-1.4776,-1.4796,-1.4825,-1.485,-1.4843,-1.4898,-1.4894,-1.491,-1.4909,-1.492,-1.4919,-1.4955,-1.4934,-1.4934,-1.4934,-1.4934,0,-1.4461,-1.4493,-1.4531,-1.4555,-1.4591,-1.4617,-1.4652,-1.4674,-1.4705,-1.4733,-1.4751,-1.4778,-1.4809,-1.484,-1.4859,-1.4898,-1.4907,-1.4919,-1.4924,-1.4917,-1.4915,-1.4929,-1.4928,-1.4935,-1.4935,-1.4935,-1.4935,0,-1.4475,-1.4502,-1.4546,-1.4588,-1.46,-1.4624,-1.466,-1.4684,-1.4706,-1.4742,-1.4752,-1.4787,-1.4824,-1.4851,-1.49,-1.4913,-1.4953,-1.4959,-1.4941,-1.4943,-1.4958,-1.4955,-1.5003,-1.501,-1.4985,-1.4985,-1.4986,0,-1.4494,-1.4518,-1.4563,-1.4583,-1.4604,-1.4636,-1.4659,-1.4685,-1.4708,-1.475,-1.4769,-1.4807,-1.4839,-1.4897,-1.4926,-1.4963,-1.4969,-1.4983,-1.4975,-1.4967,-1.4968,-1.4966,-1.4968,-1.4984,-1.4984,-1.4984,-1.4984,0,-1.4523,-1.4535,-1.4566,-1.4603,-1.4629,-1.4659,-1.469,-1.4705,-1.4737,-1.4762,-1.48,-1.4824,-1.4873,-1.491,-1.4949,-1.4972,-1.4983,-1.4987,-1.4992,-1.4985,-1.4973,-1.4979,-1.4943,-1.4985,-1.4985,-1.4985,-1.4985,-1.4985,-1.4539,-1.4562,-1.4596,-1.4631,-1.4656,-1.4684,-1.4708,-1.4733,-1.4764,-1.4805,-1.4819,-1.4857,-1.4892,-1.4946,-1.4969,-1.4999,-1.4999,-1.5007,-1.5009,-1.5011,-1.501,-1.4969,-1.5007,-1.5007,-1.5007,-1.5007,-1.5007,0,-1.4568,-1.4591,-1.4623,-1.4664,-1.4691,-1.4699,-1.4733,-1.4755,-1.4789,-1.482,-1.485,-1.4893,-1.4929,-1.4961,-1.4999,-1.5017,-1.5023,-1.5026,-1.5024,-1.5029,-1.5008,-1.4999,-1.502,-1.502,-1.502,-1.502,-1.502,-1.502,-1.4587,-1.4624,-1.464,-1.469,-1.4713,-1.475,-1.4769,-1.4794,-1.4819,-1.4866,-1.4895,-1.4916,-1.4947,-1.4987,-1.5021,-1.5029,-1.5042,-1.5043,-1.5053,-1.5032,-1.5031,-1.5029,-1.502,-1.5046,-1.5046,-1.5071,-1.5071,-1.5071]},{"header":{"parameterUnit":"m.s-1","parameterCategory":1,"la1":30.2991,"la2":30.254,"lo1":-89.0895,"lo2":-89.0444,"dy":0.0017,"dx":0.0017,"nx":28,"ny":28,"refTime":"2025-03-28T21:00:00:Z","depth":0,"parameterNumber":3,"parameterNumberName":"V-component_of_WINDS"},"data":[0,0,0,0,0,0,0,0,0,0,0,0,0,0,0,0,0,0,0,0,0,0,0,0,0,0,0,0,0,0,0,0,0,0,0,0,0,0,0,0,0,0,0,0,0,0,0,0,0,0,0,0,0,0,0,0,0,0,4.5373,4.5374,0,4.5445,4.5446,4.5447,4.5467,4.5467,4.5467,4.5466,4.5538,4.554,4.5542,0,0,0,0,0,0,0,0,0,0,0,0,0,4.5254,4.5256,4.5373,4.5374,4.5375,4.5445,4.5446,4.5447,4.5467,4.5467,4.5466,4.5466,4.5537,4.554,4.5542,0,0,0,0,0,0,0,0,0,0,0,0,0,4.5314,4.5257,4.5373,4.5393,4.5396,4.5445,4.5446,4.5447,4.5467,4.5467,4.5466,4.5466,4.5536,4.5539,4.5543,4.5575,0,0,4.5553,4.5555,0,0,0,0,0,0,0,0,4.531,4.5318,4.5389,4.5392,4.5395,4.5447,4.543,4.549,4.5468,4.544,4.5466,4.5465,4.5508,4.5513,4.5528,4.5579,4.5582,4.5553,4.5555,4.5557,4.5558,0,0,0,0,0,0,0,4.5306,4.5315,4.5401,4.539,4.5394,4.54,4.5407,4.5442,4.5476,4.5443,4.5444,4.5453,4.5509,4.5525,4.553,4.5583,4.5553,4.5556,4.5558,4.556,4.5671,4.5671,0,0,0,0,0,0,4.5299,4.5311,4.5399,4.5403,4.535,4.5402,4.5411,4.5431,4.5476,4.5482,4.5453,4.5453,4.5519,4.5526,4.5533,4.5578,4.5557,4.556,4.5562,4.567,4.5671,4.5672,0,0,0,0,0,0,4.5296,4.5306,4.5396,4.5358,4.537,4.5405,4.5427,4.5432,4.5448,4.5484,4.549,4.5463,4.5519,4.5528,4.5566,4.5581,4.5562,4.5565,4.5669,4.567,4.5671,4.5666,0,0,0,0,0,0,4.5292,4.5305,4.5317,4.5358,4.5372,4.5428,4.5428,4.5434,4.5454,4.5455,4.5495,4.5501,4.5519,4.5561,4.557,4.5585,4.5567,4.5667,4.5669,4.5671,4.5665,4.5667,4.5669,0,0,0,0,0,4.5288,4.5311,4.5317,4.5328,4.5388,4.5428,4.5436,4.5458,4.5455,4.5468,4.5493,4.5499,4.5578,4.5565,4.5575,4.5591,4.5667,4.5669,4.5671,4.5665,4.5667,4.5669,0,0,0,0,0,0,4.5267,4.5316,4.5324,4.5361,4.5391,4.5432,4.5448,4.5459,4.5489,4.5489,4.5514,4.5523,4.5561,4.558,4.5564,4.5628,4.5623,4.5627,4.5614,4.5617,4.5619,4.5614,4.557,0,0,0,0,0,4.5268,4.5297,4.5338,4.5366,4.5381,4.5413,4.5431,4.5446,4.5478,4.549,4.5516,4.5546,4.5579,4.5599,4.563,4.5669,4.568,4.5685,4.5687,4.5688,4.5692,4.5719,4.5723,4.5678,4.5678,4.5678,0,0,4.5267,4.5297,4.5314,4.5363,4.5388,4.5419,4.5423,4.5454,4.5478,4.5494,4.5533,4.5555,4.559,4.5631,4.5649,4.5647,4.5707,4.5691,4.5692,4.5695,4.5721,4.5726,4.5729,4.568,4.568,4.5679,0,0,4.5283,4.5307,4.5336,4.5363,4.5402,4.5424,4.5431,4.5472,4.5488,4.5528,4.5543,4.5572,4.5625,4.5651,4.5672,4.5705,4.5714,4.5714,4.5724,4.575,4.5753,4.5757,4.5772,4.5777,4.5717,4.5717,4.5717,0,4.5277,4.5324,4.5349,4.5382,4.5405,4.5425,4.5456,4.548,4.5526,4.5542,4.554,4.5611,4.5636,4.5685,4.5694,4.5709,4.572,4.5709,4.5751,4.5755,4.5758,4.5773,4.5778,4.5717,4.5717,4.5717,4.5717,0,4.5317,4.535,4.5369,4.5417,4.5442,4.5473,4.5505,4.5528,4.5542,4.5565,4.5608,4.564,4.568,4.5693,4.5705,4.5746,4.5744,4.5746,4.5741,4.5762,4.5777,4.5782,4.5717,4.5717,4.5717,4.5717,0,0,4.5317,4.5384,4.539,4.5415,4.5463,4.5489,4.5524,4.5565,4.5586,4.5619,4.565,4.5698,4.5702,4.5725,4.5742,4.5764,4.5794,4.5764,4.5766,4.5771,4.5845,4.5845,4.5851,4.5801,4.5802,4.5803,4.5843,0,4.5341,4.5403,4.543,4.5481,4.5514,4.5537,4.5567,4.5601,4.5625,4.5657,4.5683,4.5718,4.5719,4.5734,4.5758,4.5785,4.581,4.5783,4.5831,4.5833,4.5823,4.5858,4.5856,4.5892,4.5849,4.585,4.585,0,4.5375,4.5412,4.5467,4.5517,4.5532,4.5558,4.5602,4.5632,4.5672,4.5688,4.5718,4.5735,4.5774,4.5767,4.5823,4.5805,4.5827,4.5844,4.5846,4.5852,4.5843,4.5866,4.5904,4.591,4.5859,4.5858,4.5858,0,4.5373,4.5437,4.548,4.55,4.5557,4.5577,4.5602,4.5641,4.5667,4.5705,4.5723,4.5764,4.5787,4.582,4.5848,4.584,4.5904,4.5897,4.592,4.5919,4.5931,4.593,4.5975,4.5943,4.5943,4.5943,4.5943,0,4.5397,4.543,4.5481,4.5507,4.5547,4.5579,4.5617,4.5644,4.5681,4.5714,4.5735,4.5766,4.5801,4.5837,4.586,4.5906,4.5915,4.5931,4.5936,4.5929,4.5928,4.5944,4.5943,4.5944,4.5944,4.5944,4.5944,0,4.5401,4.5436,4.5485,4.5538,4.5552,4.5579,4.5625,4.5653,4.568,4.5722,4.5734,4.5776,4.582,4.5853,4.5908,4.5924,4.5974,4.5979,4.5961,4.5964,4.5986,4.5984,4.6043,4.6054,4.6013,4.6014,4.6014,0,4.5414,4.5441,4.5499,4.5524,4.555,4.5589,4.5617,4.5651,4.5679,4.5731,4.5753,4.58,4.5839,4.5909,4.5944,4.5989,4.5996,4.6015,4.6003,4.5997,4.6,4.5999,4.6004,4.6016,4.6016,4.6016,4.6016,0,4.5435,4.5453,4.5492,4.554,4.5573,4.5611,4.565,4.5669,4.5711,4.5742,4.5789,4.582,4.588,4.5927,4.5977,4.6003,4.6018,4.602,4.6028,4.6022,4.6012,4.6021,4.5968,4.6018,4.6018,4.6018,4.6018,4.6018,4.5445,4.5473,4.552,4.5565,4.5599,4.5636,4.5667,4.57,4.574,4.5793,4.5812,4.5861,4.5907,4.5975,4.6003,4.6043,4.6043,4.6053,4.6056,4.6059,4.606,4.6005,4.6052,4.6052,4.6052,4.6052,4.6052,0,4.5469,4.5503,4.5544,4.56,4.5637,4.565,4.5696,4.5725,4.5769,4.5811,4.5851,4.5908,4.5955,4.5997,4.6047,4.6072,4.608,4.6084,4.6083,4.609,4.6056,4.6046,4.6077,4.6077,4.6077,4.6077,4.6077,4.6077,4.5486,4.5535,4.5559,4.5627,4.566,4.571,4.5736,4.5772,4.5806,4.587,4.591,4.5938,4.5982,4.6036,4.6081,4.6093,4.6111,4.6113,4.6127,4.6094,4.6091,4.6089,4.6079,4.6117,4.6117,4.6157,4.6158,4.6158]}]]